| time (UTC) | temp C | wind direction | speed KPH | gust KPH | rain 1hr cm | rain 24hr cm | rain mn cm | humidity % | barometer mb |
| 20260504215012 | 20 | 149 | 1.6 | 11.3 | 0.00 | 0.00 | 0.00 | 47 | 1011.2 |
| 20260504214530 | 20 | 134 | 3.2 | 12.9 | 0.00 | 0.00 | 0.00 | 46 | 1011.3 |
| 20260504214008 | 20 | 156 | 3.2 | 14.5 | 0.00 | 0.00 | 0.00 | 45 | 1011.3 |
| 20260504213649 | 20 | 275 | 4.8 | 14.5 | 0.00 | 0.00 | 0.00 | 45 | 1011.3 |
| 20260504213514 | 20 | 275 | 4.8 | 14.5 | 0.00 | 0.00 | 0.00 | 45 | 1011.3 |
| 20260504213033 | 20 | 146 | 6.4 | 14.5 | 0.00 | 0.00 | 0.00 | 45 | 1011.3 |
| 20260504212749 | 21 | 249 | 3.2 | 16.1 | 0.00 | 0.00 | 0.00 | 45 | 1011.3 |
| 20260504212208 | 21 | 130 | 4.8 | 16.1 | 0.00 | 0.00 | 0.00 | 45 | 1011.3 |
| 20260504211610 | 21 | 144 | 6.4 | 16.1 | 0.00 | 0.00 | 0.00 | 45 | 1011.3 |
| 20260504211010 | 21 | 163 | 6.4 | 14.5 | 0.00 | 0.00 | 0.00 | 44 | 1011.2 |
| 20260504210643 | 21 | 248 | 3.2 | 12.9 | 0.00 | 0.00 | 0.00 | 44 | 1011.3 |
| 20260504205510 | 22 | 126 | 1.6 | 9.7 | 0.00 | 0.00 | 0.00 | 33 | 1011.2 |
| 20260504205008 | 22 | 277 | 1.6 | 12.9 | 0.00 | 0.00 | 0.00 | 40 | 1011.2 |
| 20260504204530 | 22 | 0 | 1.6 | 14.5 | 0.00 | 0.00 | 0.00 | 41 | 1011.3 |
| 20260504204010 | 22 | 244 | 3.2 | 14.5 | 0.00 | 0.00 | 0.00 | 31 | 1011.2 |
| 20260504203508 | 22 | 252 | 3.2 | 12.9 | 0.00 | 0.00 | 0.00 | 31 | 1011.2 |
| 20260504203028 | 22 | 241 | 3.2 | 11.3 | 0.00 | 0.00 | 0.00 | 32 | 1011.3 |
| 20260504202544 | 22 | 155 | 3.2 | 11.3 | 0.00 | 0.00 | 0.00 | 32 | 1011.3 |
| 20260504202239 | 22 | 169 | 4.8 | 11.3 | 0.00 | 0.00 | 0.00 | 32 | 1011.3 |
| 20260504201732 | 22 | 0 | 4.8 | 14.5 | 0.00 | 0.00 | 0.00 | 32 | 1011.3 |
| 20260504201315 | 22 | 242 | 3.2 | 17.7 | 0.00 | 0.00 | 0.00 | 32 | 1011.3 |
| 20260504200534 | 22 | 128 | 4.8 | 17.7 | 0.00 | 0.00 | 0.00 | 32 | 1011.2 |
| 20260504200245 | 22 | 178 | 4.8 | 16.1 | 0.00 | 0.00 | 0.00 | 33 | 1011.4 |
| 20260504195743 | 22 | 273 | 4.8 | 16.1 | 0.00 | 0.00 | 0.00 | 31 | 1011.3 |
| 20260504195109 | 22 | 182 | 3.2 | 16.1 | 0.00 | 0.00 | 0.00 | 31 | 1011.4 |
| 20260504194626 | 23 | 192 | 4.8 | 12.9 | 0.00 | 0.00 | 0.00 | 31 | 1011.6 |
| 20260504194008 | 23 | 313 | 1.6 | 12.9 | 0.00 | 0.00 | 0.00 | 33 | 1011.5 |
| 20260504193638 | 22 | 26 | 4.8 | 12.9 | 0.00 | 0.00 | 0.00 | 32 | 1011.4 |
| 20260504193028 | 23 | 175 | 1.6 | 11.3 | 0.00 | 0.00 | 0.00 | 35 | 1011.6 |
| 20260504192710 | 23 | 94 | 1.6 | 14.5 | 0.00 | 0.00 | 0.00 | 34 | 1011.7 |
| 20260504192010 | 22 | 342 | 3.2 | 14.5 | 0.00 | 0.00 | 0.00 | 35 | 1011.8 |
| 20260504191528 | 22 | 223 | 3.2 | 14.5 | 0.00 | 0.00 | 0.00 | 33 | 1011.8 |
| 20260504191016 | 22 | 142 | 3.2 | 11.3 | 0.00 | 0.00 | 0.00 | 33 | 1011.9 |
| 20260504191011 | 22 | 247 | 1.6 | 14.5 | 0.00 | 0.00 | 0.00 | 35 | 1012.0 |
| 20260504190030 | 22 | 200 | 3.2 | 14.5 | 0.00 | 0.00 | 0.00 | 35 | 1012.0 |
| 20260504185510 | 23 | 187 | 4.8 | 12.9 | 0.00 | 0.00 | 0.00 | 33 | 1012.1 |
| 20260504185008 | 23 | 115 | 1.6 | 9.7 | 0.00 | 0.00 | 0.00 | 35 | 1012.1 |
| 20260504184729 | 22 | 252 | 3.2 | 11.3 | 0.00 | 0.00 | 0.00 | 31 | 1012.2 |
| 20260504184137 | 22 | 239 | 3.2 | 11.3 | 0.00 | 0.00 | 0.00 | 33 | 1012.2 |
| 20260504175704 | 22 | 290 | 3.2 | 9.7 | 0.00 | 0.00 | 0.00 | 33 | 1012.7 |
| 20260504175210 | 22 | 168 | 1.6 | 11.3 | 0.00 | 0.00 | 0.00 | 33 | 1012.7 |
| 20260504175012 | 22 | 168 | 1.6 | 11.3 | 0.00 | 0.00 | 0.00 | 33 | 1012.7 |
| 20260504174532 | 22 | 293 | 3.2 | 11.3 | 0.00 | 0.00 | 0.00 | 32 | 1012.9 |
| 20260504174150 | 22 | 0 | 3.2 | 11.3 | 0.00 | 0.00 | 0.00 | 34 | 1013.0 |
| 20260504174010 | 22 | 0 | 3.2 | 11.3 | 0.00 | 0.00 | 0.00 | 34 | 1013.0 |
| 20260504173509 | 22 | 352 | 1.6 | 9.7 | 0.00 | 0.00 | 0.00 | 34 | 1013.0 |
| 20260504173028 | 22 | 262 | 3.2 | 14.5 | 0.00 | 0.00 | 0.00 | 34 | 1013.2 |
| 20260504172619 | 22 | 294 | 3.2 | 14.5 | 0.00 | 0.00 | 0.00 | 34 | 1013.3 |
| 20260504172202 | 21 | 187 | 4.8 | 14.5 | 0.00 | 0.00 | 0.00 | 34 | 1013.4 |
| 20260504171619 | 22 | 250 | 4.8 | 11.3 | 0.00 | 0.00 | 0.00 | 34 | 1013.4 |
| 20260504171013 | 22 | 237 | 3.2 | 11.3 | 0.00 | 0.00 | 0.00 | 33 | 1013.5 |
| 20260504170725 | 22 | 198 | 3.2 | 9.7 | 0.00 | 0.00 | 0.00 | 34 | 1013.5 |
| 20260504160121 | 21 | 259 | 3.2 | 11.3 | 0.00 | 0.00 | 0.00 | 41 | 1014.2 |
| 20260504151012 | 19 | 97 | 3.2 | 8.0 | 0.00 | 0.00 | 0.00 | 46 | 1014.7 |
| 20260504150616 | 20 | 291 | 3.2 | 12.9 | 0.00 | 0.00 | 0.00 | 46 | 1014.7 |
| 20260504150118 | 18 | 0 | 1.6 | 14.5 | 0.00 | 0.00 | 0.00 | 48 | 1014.7 |
| 20260504141011 | 17 | 299 | 4.8 | 16.1 | 0.00 | 0.00 | 0.00 | 51 | 1015.0 |
| 20260504140508 | 17 | 297 | 3.2 | 11.3 | 0.00 | 0.00 | 0.00 | 52 | 1015.0 |
| 20260504140244 | 17 | 245 | 3.2 | 11.3 | 0.00 | 0.00 | 0.00 | 52 | 1015.1 |
| 20260504130640 | 16 | 215 | 3.2 | 14.5 | 0.00 | 0.00 | 0.00 | 54 | 1015.4 |
| 20260504130510 | 16 | 215 | 3.2 | 14.5 | 0.00 | 0.00 | 0.00 | 54 | 1015.4 |
| 20260504110511 | 6 | 0 | 0.0 | 0.0 | 0.00 | 0.00 | 0.00 | 88 | 1016.4 |
| 20260504100510 | 3 | 0 | 0.0 | 0.0 | 0.00 | 0.00 | 0.00 | 89 | 1016.5 |
| 20260504081527 | 3 | 0 | 0.0 | 0.0 | 0.00 | 0.00 | 0.00 | 87 | 1016.4 |
| 20260504081013 | 4 | 0 | 0.0 | 0.0 | 0.00 | 0.00 | 0.00 | 86 | 1016.3 |
| 20260504080509 | 3 | 0 | 0.0 | 0.0 | 0.00 | 0.00 | 0.00 | 85 | 1016.2 |
| 20260504050511 | 4 | 0 | 0.0 | 1.6 | 0.00 | 0.00 | 0.00 | 77 | 1015.9 |
| 20260504045507 | 4 | 0 | 0.0 | 0.0 | 0.00 | 0.00 | 0.00 | 77 | 1015.7 |
| 20260504045009 | 4 | 0 | 0.0 | 0.0 | 0.00 | 0.00 | 0.00 | 77 | 1015.7 |
| 20260504044531 | 4 | 0 | 0.0 | 1.6 | 0.00 | 0.00 | 0.00 | 76 | 1015.7 |
| 20260504044010 | 4 | 0 | 0.0 | 1.6 | 0.00 | 0.00 | 0.00 | 75 | 1015.7 |
| 20260504043510 | 4 | 0 | 0.0 | 0.0 | 0.00 | 0.00 | 0.00 | 75 | 1015.7 |
| 20260504043042 | 4 | 0 | 0.0 | 0.0 | 0.00 | 0.00 | 0.00 | 75 | 1015.7 |
| 20260504042509 | 4 | 0 | 0.0 | 0.0 | 0.00 | 0.00 | 0.00 | 76 | 1015.7 |
| 20260504042008 | 4 | 0 | 0.0 | 0.0 | 0.00 | 0.00 | 0.00 | 75 | 1015.7 |
| 20260504041535 | 4 | 0 | 0.0 | 0.0 | 0.00 | 0.00 | 0.00 | 75 | 1015.7 |
| 20260504041007 | 4 | 0 | 0.0 | 0.0 | 0.00 | 0.00 | 0.00 | 75 | 1015.6 |
| 20260504040509 | 4 | 0 | 0.0 | 0.0 | 0.00 | 0.00 | 0.00 | 75 | 1015.5 |
| 20260504040124 | 4 | 0 | 0.0 | 0.0 | 0.00 | 0.00 | 0.00 | 74 | 1015.5 |
| 20260504040029 | 4 | 0 | 0.0 | 0.0 | 0.00 | 0.00 | 0.00 | 74 | 1015.5 |
| 20260504035511 | 4 | 0 | 0.0 | 0.0 | 0.00 | 0.00 | 0.00 | 74 | 1015.5 |
| 20260504035009 | 4 | 0 | 0.0 | 0.0 | 0.00 | 0.00 | 0.00 | 76 | 1015.5 |
| 20260504034528 | 4 | 0 | 0.0 | 0.0 | 0.00 | 0.00 | 0.00 | 75 | 1015.4 |
| 20260504034013 | 4 | 0 | 0.0 | 0.0 | 0.00 | 0.00 | 0.00 | 73 | 1015.3 |
| 20260504033511 | 4 | 0 | 0.0 | 0.0 | 0.00 | 0.00 | 0.00 | 73 | 1015.3 |
| 20260504033030 | 5 | 0 | 0.0 | 0.0 | 0.00 | 0.00 | 0.00 | 72 | 1015.3 |
| 20260504032510 | 5 | 0 | 0.0 | 0.0 | 0.00 | 0.00 | 0.00 | 73 | 1015.3 |
| 20260504032010 | 5 | 0 | 0.0 | 0.0 | 0.00 | 0.00 | 0.00 | 74 | 1015.3 |
| 20260504031528 | 5 | 0 | 0.0 | 0.0 | 0.00 | 0.00 | 0.00 | 73 | 1015.2 |
| 20260504031008 | 5 | 0 | 0.0 | 0.0 | 0.00 | 0.00 | 0.00 | 73 | 1015.2 |
| 20260504030514 | 5 | 0 | 0.0 | 0.0 | 0.00 | 0.00 | 0.00 | 72 | 1015.2 |
| 20260504030033 | 5 | 0 | 0.0 | 0.0 | 0.00 | 0.00 | 0.00 | 71 | 1015.3 |
| 20260504025512 | 5 | 0 | 0.0 | 0.0 | 0.00 | 0.00 | 0.00 | 70 | 1015.3 |
| 20260504025008 | 5 | 0 | 0.0 | 0.0 | 0.00 | 0.00 | 0.00 | 70 | 1015.3 |
| 20260504024528 | 5 | 0 | 0.0 | 0.0 | 0.00 | 0.00 | 0.00 | 70 | 1015.2 |
| 20260504024022 | 6 | 0 | 0.0 | 0.0 | 0.00 | 0.00 | 0.00 | 71 | 1015.3 |
| 20260504023510 | 6 | 0 | 0.0 | 0.0 | 0.00 | 0.00 | 0.00 | 69 | 1015.2 |
| 20260504023029 | 6 | 0 | 0.0 | 0.0 | 0.00 | 0.00 | 0.00 | 68 | 1015.3 |
| 20260504022508 | 6 | 0 | 0.0 | 0.0 | 0.00 | 0.00 | 0.00 | 69 | 1015.2 |
| 20260504022011 | 6 | 0 | 0.0 | 0.0 | 0.00 | 0.00 | 0.00 | 69 | 1015.2 |
| 20260504021533 | 6 | 0 | 0.0 | 0.0 | 0.00 | 0.00 | 0.00 | 69 | 1015.3 |
| 20260504021012 | 6 | 0 | 0.0 | 0.0 | 0.00 | 0.00 | 0.00 | 68 | 1015.3 |
| 20260504020509 | 6 | 0 | 0.0 | 0.0 | 0.00 | 0.00 | 0.00 | 66 | 1015.2 |
| 20260504020031 | 6 | 0 | 0.0 | 0.0 | 0.00 | 0.00 | 0.00 | 66 | 1015.3 |
| 20260504015510 | 6 | 0 | 0.0 | 1.6 | 0.00 | 0.00 | 0.00 | 66 | 1015.3 |
| 20260504015009 | 6 | 0 | 0.0 | 1.6 | 0.00 | 0.00 | 0.00 | 66 | 1015.3 |
| 20260504014537 | 6 | 0 | 0.0 | 0.0 | 0.00 | 0.00 | 0.00 | 67 | 1015.2 |
| 20260504014432 | 6 | 0 | 0.0 | 0.0 | 0.00 | 0.00 | 0.00 | 64 | 1015.1 |
| 20260504012510 | 7 | 0 | 0.0 | 1.6 | 0.00 | 0.00 | 0.00 | 60 | 1015.1 |
| 20260504012010 | 7 | 0 | 0.0 | 1.6 | 0.00 | 0.00 | 0.00 | 61 | 1015.0 |
| 20260504011528 | 7 | 0 | 0.0 | 0.0 | 0.00 | 0.00 | 0.00 | 65 | 1014.9 |
| 20260504011012 | 7 | 0 | 0.0 | 0.0 | 0.00 | 0.00 | 0.00 | 65 | 1014.8 |
| 20260504010509 | 7 | 0 | 0.0 | 0.0 | 0.00 | 0.00 | 0.00 | 61 | 1014.8 |
| 20260504010030 | 7 | 0 | 0.0 | 0.0 | 0.00 | 0.00 | 0.00 | 65 | 1014.7 |
| 20260504005509 | 7 | 0 | 0.0 | 0.0 | 0.00 | 0.00 | 0.00 | 64 | 1014.6 |
| 20260504005014 | 8 | 0 | 0.0 | 0.0 | 0.00 | 0.00 | 0.00 | 59 | 1014.6 |
| 20260504004528 | 8 | 0 | 0.0 | 0.0 | 0.00 | 0.00 | 0.00 | 57 | 1014.4 |
| 20260504004010 | 8 | 0 | 0.0 | 0.0 | 0.00 | 0.00 | 0.00 | 57 | 1014.4 |
| 20260504003509 | 8 | 0 | 0.0 | 0.0 | 0.00 | 0.00 | 0.00 | 58 | 1014.3 |
| 20260504003034 | 9 | 0 | 0.0 | 0.0 | 0.00 | 0.00 | 0.00 | 57 | 1014.3 |
| 20260504002509 | 9 | 0 | 0.0 | 0.0 | 0.00 | 0.00 | 0.00 | 57 | 1014.2 |
| 20260504002014 | 9 | 0 | 0.0 | 0.0 | 0.00 | 0.00 | 0.00 | 54 | 1014.2 |
| 20260504001532 | 10 | 0 | 0.0 | 0.0 | 0.00 | 0.00 | 0.00 | 53 | 1014.1 |
| 20260504001010 | 10 | 0 | 0.0 | 0.0 | 0.00 | 0.00 | 0.00 | 53 | 1014.0 |
| 20260504000510 | 10 | 0 | 0.0 | 0.0 | 0.00 | 0.00 | 0.00 | 57 | 1014.0 |
| 20260504000028 | 10 | 0 | 0.0 | 0.0 | 0.00 | 0.00 | 0.00 | 51 | 1014.0 |
| 20260503235509 | 11 | 0 | 0.0 | 0.0 | 0.00 | 0.00 | 0.00 | 47 | 1013.9 |
| 20260503235011 | 11 | 0 | 0.0 | 0.0 | 0.00 | 0.00 | 0.00 | 45 | 1013.9 |
| 20260503234529 | 11 | 0 | 0.0 | 0.0 | 0.00 | 0.00 | 0.00 | 45 | 1013.7 |
| 20260503234009 | 12 | 0 | 0.0 | 1.6 | 0.00 | 0.00 | 0.00 | 44 | 1013.7 |
| 20260503233508 | 12 | 0 | 0.0 | 6.4 | 0.00 | 0.00 | 0.00 | 42 | 1013.6 |
| 20260503233029 | 12 | 0 | 0.0 | 6.4 | 0.00 | 0.00 | 0.00 | 41 | 1013.6 |
| 20260503232507 | 13 | 0 | 0.0 | 4.8 | 0.00 | 0.00 | 0.00 | 39 | 1013.6 |
| 20260503232144 | 13 | 211 | 0.0 | 4.8 | 0.00 | 0.00 | 0.00 | 38 | 1013.6 |
| 20260503231530 | 13 | 298 | 0.0 | 4.8 | 0.00 | 0.00 | 0.00 | 37 | 1013.6 |
| 20260503231036 | 13 | 0 | 0.0 | 4.8 | 0.00 | 0.00 | 0.00 | 39 | 1013.6 |
| 20260503230519 | 13 | 0 | 0.0 | 8.0 | 0.00 | 0.00 | 0.00 | 40 | 1013.6 |
| 20260503230029 | 13 | 0 | 1.6 | 8.0 | 0.00 | 0.00 | 0.00 | 38 | 1013.6 |
| 20260503225510 | 13 | 0 | 0.0 | 4.8 | 0.00 | 0.00 | 0.00 | 37 | 1013.5 |
| 20260503225011 | 13 | 0 | 0.0 | 4.8 | 0.00 | 0.00 | 0.00 | 38 | 1013.6 |
| 20260503224600 | 14 | 302 | 0.0 | 4.8 | 0.00 | 0.00 | 0.00 | 37 | 1013.6 |
| 20260503224009 | 14 | 0 | 0.0 | 8.0 | 0.00 | 0.00 | 0.00 | 37 | 1013.5 |
| 20260503223512 | 14 | 252 | 0.0 | 8.0 | 0.00 | 0.00 | 0.00 | 36 | 1013.6 |
| 20260503223028 | 14 | 345 | 0.0 | 11.3 | 0.00 | 0.00 | 0.00 | 38 | 1013.5 |
| 20260503222553 | 14 | 337 | 0.0 | 11.3 | 0.00 | 0.00 | 0.00 | 35 | 1013.5 |
| 20260503222020 | 14 | 150 | 1.6 | 9.7 | 0.00 | 0.00 | 0.00 | 35 | 1013.5 |
| 20260503221529 | 14 | 0 | 1.6 | 8.0 | 0.00 | 0.00 | 0.00 | 35 | 1013.5 |
| 20260503221011 | 14 | 283 | 1.6 | 8.0 | 0.00 | 0.00 | 0.00 | 35 | 1013.6 |
| 20260503220508 | 14 | 0 | 1.6 | 8.0 | 0.00 | 0.00 | 0.00 | 34 | 1013.5 |
| 20260503220030 | 14 | 315 | 1.6 | 9.7 | 0.00 | 0.00 | 0.00 | 35 | 1013.4 |
| 20260503215511 | 14 | 295 | 1.6 | 9.7 | 0.00 | 0.00 | 0.00 | 36 | 1013.4 |